Starlink 32710

operational
NORAD ID: 62604 Int'l Des: 2025-008 Owner: SPXS Country: US Constellation: starlink
LEOCIRCULAR

关于 Starlink 32710

正在加载描述...

实时位置

正在加载3D地球...

即将过境

高度历史

Altitude vs Time

uPlot chart will show altitude changes over time

两行轨道根数

1 62604U 25008T 25259.46998496 .00030907 00000-0 11263-2 0 9995
2 62604 42.9985 181.4778 0003169 277.1695 82.8796 15.27626643 38923
Epoch: Sep 16, 2025 • Age: 34 hours

当前状态

高度 483.1 km
速度 7.63 km/s
星下点 16.08°N, 24.92°E
发射日期 Jan 13, 2025
运行时间 0.6 years
类型 internet

技术详情

分类 Payload
质量 730.00 kg
干质量 700.00 kg
总质量 730.00 kg
长度 0.30 m
直径 4.10 m
跨度 29.00 m
形状 Box + pan
制造商 SPXS
平台类型 Starlink V2M
阶段状态 In Orbit
所有者/国家 SPXS/US

大型星座

Loading constellations...